TimeEST,TemperatureF,Dew PointF,Humidity,Sea Level PressureIn,VisibilityMPH,Wind Direction,Wind SpeedMPH,Gust SpeedMPH,PrecipitationIn,Events,Conditions,WindDirDegrees,DateUTC
12:53 AM,26.1,24.1,92,29.98,3.0,NNW,4.6,-,N/A,,Clear,340,2013-12-02 05:53:00
1:05 AM,26.6,24.8,93,29.94,2.0,NNW,4.6,-,N/A,,Clear,340,2013-12-02 06:05:00
1:20 AM,24.8,23.0,93,29.94,3.0,NNW,4.6,-,N/A,,Clear,340,2013-12-02 06:20:00
1:53 AM,25.0,21.9,88,29.97,4.0,North,4.6,-,N/A,,Clear,350,2013-12-02 06:53:00
2:06 AM,26.6,24.8,93,29.93,2.5,North,5.8,-,N/A,,Clear,10,2013-12-02 07:06:00
2:53 AM,27.0,24.1,89,29.96,2.5,Calm,Calm,-,N/A,,Partly Cloudy,0,2013-12-02 07:53:00
3:43 AM,26.6,26.6,100,29.92,1.8,Calm,Calm,-,N/A,,Partly Cloudy,0,2013-12-02 08:43:00
3:51 AM,26.6,26.6,100,29.92,2.5,Calm,Calm,-,N/A,,Partly Cloudy,0,2013-12-02 08:51:00
3:53 AM,27.0,26.1,96,29.95,2.5,Calm,Calm,-,N/A,,Partly Cloudy,0,2013-12-02 08:53:00
4:12 AM,26.6,24.8,93,29.92,1.5,NNW,4.6,-,N/A,,Mostly Cloudy,340,2013-12-02 09:12:00
4:35 AM,26.6,24.8,93,29.92,2.5,North,5.8,-,N/A,,Mostly Cloudy,350,2013-12-02 09:35:00
4:53 AM,27.0,26.1,96,29.94,2.0,Calm,Calm,-,N/A,,Partly Cloudy,0,2013-12-02 09:53:00
5:09 AM,28.4,26.6,93,29.91,1.8,Calm,Calm,-,N/A,,Partly Cloudy,0,2013-12-02 10:09:00
5:17 AM,28.4,26.6,93,29.91,2.0,North,4.6,-,N/A,,Clear,10,2013-12-02 10:17:00
5:32 AM,28.4,26.6,93,29.91,1.8,North,6.9,-,N/A,,Clear,360,2013-12-02 10:32:00
5:51 AM,28.4,28.4,100,29.91,1.5,North,8.1,-,N/A,,Scattered Clouds,360,2013-12-02 10:51:00
5:53 AM,28.9,28.0,96,29.94,1.2,North,6.9,-,N/A,,Scattered Clouds,360,2013-12-02 10:53:00
5:59 AM,28.4,28.4,100,29.91,1.0,North,6.9,-,N/A,,Mostly Cloudy,10,2013-12-02 10:59:00
6:08 AM,28.4,28.4,100,29.91,0.2,North,6.9,-,N/A,Fog,Light Freezing Fog,10,2013-12-02 11:08:00
6:53 AM,28.9,28.9,100,29.96,0.2,North,6.9,-,N/A,Fog,Light Freezing Fog,10,2013-12-02 11:53:00
7:53 AM,30.9,30.0,96,29.95,0.2,NE,4.6,-,N/A,Fog,Light Freezing Fog,40,2013-12-02 12:53:00
8:53 AM,30.9,30.9,100,29.96,0.2,ENE,3.5,-,N/A,Fog,Light Freezing Fog,60,2013-12-02 13:53:00
9:53 AM,32.0,32.0,100,29.95,0.5,ENE,6.9,-,N/A,Fog,Fog,60,2013-12-02 14:53:00
10:40 AM,33.8,33.8,100,29.90,1.0,ENE,9.2,-,N/A,,Overcast,60,2013-12-02 15:40:00
10:53 AM,33.1,33.1,100,29.94,1.2,ENE,4.6,-,N/A,,Overcast,60,2013-12-02 15:53:00
11:30 AM,33.8,33.8,100,29.89,2.0,ENE,4.6,-,N/A,,Overcast,70,2013-12-02 16:30:00
11:53 AM,35.1,33.1,92,29.93,2.5,NE,3.5,-,N/A,,Overcast,40,2013-12-02 16:53:00
12:02 PM,35.6,33.8,93,29.89,2.5,NE,3.5,-,N/A,,Overcast,50,2013-12-02 17:02:00
12:50 PM,35.6,32.0,87,29.88,3.0,NNE,5.8,-,N/A,,Overcast,20,2013-12-02 17:50:00
12:53 PM,36.0,32.0,86,29.92,3.0,NNE,4.6,-,N/A,,Overcast,20,2013-12-02 17:53:00
1:11 PM,37.4,32.0,81,29.88,3.0,NNE,6.9,-,N/A,,Haze,30,2013-12-02 18:11:00
1:53 PM,37.9,32.0,79,29.90,3.0,NE,4.6,-,N/A,,Haze,40,2013-12-02 18:53:00
2:53 PM,39.0,30.9,73,29.87,4.0,NE,8.1,-,N/A,,Haze,50,2013-12-02 19:53:00
3:53 PM,37.9,30.9,76,29.88,4.0,ENE,6.9,-,N/A,,Haze,60,2013-12-02 20:53:00
4:53 PM,34.0,28.9,82,29.88,4.0,NE,5.8,-,N/A,,Haze,50,2013-12-02 21:53:00
5:53 PM,33.1,28.9,85,29.89,5.0,NE,4.6,-,N/A,,Overcast,50,2013-12-02 22:53:00
6:53 PM,33.1,28.9,85,29.90,5.0,NE,5.8,-,N/A,,Overcast,40,2013-12-02 23:53:00
7:53 PM,34.0,28.9,82,29.90,5.0,NE,6.9,-,N/A,,Haze,50,2013-12-03 00:53:00
8:53 PM,34.0,30.0,85,29.90,4.0,ENE,5.8,-,N/A,,Overcast,60,2013-12-03 01:53:00
9:53 PM,34.0,30.9,89,29.90,4.0,East,4.6,-,0.00,Rain,Light Rain,80,2013-12-03 02:53:00
10:53 PM,34.0,30.9,89,29.89,3.0,ENE,4.6,-,0.00,,Overcast,70,2013-12-03 03:53:00
11:33 PM,33.8,32.0,93,29.86,2.5,ENE,3.5,-,0.00,,Overcast,70,2013-12-03 04:33:00
11:53 PM,34.0,32.0,92,29.89,2.5,Calm,Calm,-,0.00,,Overcast,0,2013-12-03 04:53:00